[[{"header":{"parameterUnit":"m.s-1","parameterCategory":1,"la1":30.2991,"la2":30.254,"lo1":-89.0895,"lo2":-89.0444,"dy":0.0017,"dx":0.0017,"nx":28,"ny":28,"refTime":"2026-02-04T09:00:00:Z","depth":0,"parameterNumber":2,"parameterNumberName":"U-component_of_WINDS"},"data":[0,0,0,0,0,0,0,0,0,0,0,0,0,0,0,0,0,0,0,0,0,0,0,0,0,0,0,0,0,0,0,0,0,0,0,0,0,0,0,0,0,0,0,0,0,0,0,0,0,0,0,0,0,0,0,0,0,0,4.3921,4.3922,0,4.402,4.4021,4.4022,4.3951,4.3948,4.3945,4.3942,4.4044,4.405,4.4056,0,0,0,0,0,0,0,0,0,0,0,0,0,4.3672,4.3677,4.3921,4.3922,4.3924,4.402,4.4021,4.4023,4.3952,4.3948,4.3944,4.3941,4.4043,4.4049,4.4056,0,0,0,0,0,0,0,0,0,0,0,0,0,4.3777,4.3679,4.3921,4.39,4.3899,4.402,4.4021,4.4023,4.3953,4.3948,4.3943,4.3939,4.404,4.4049,4.4057,4.4204,0,0,4.4083,4.4087,0,0,0,0,0,0,0,0,4.3771,4.3786,4.3902,4.3901,4.3901,4.3968,4.3971,4.4084,4.3954,4.3932,4.3942,4.3936,4.4023,4.4033,4.4062,4.4209,4.4213,4.4084,4.4089,4.4093,4.4095,0,0,0,0,0,0,0,4.3764,4.3781,4.396,4.3903,4.3903,4.3886,4.3896,4.3992,4.4003,4.3934,4.3929,4.3942,4.4022,4.4054,4.4064,4.4215,4.4084,4.4091,4.4096,4.41,4.4489,4.4494,0,0,0,0,0,0,4.3758,4.3776,4.3957,4.3963,4.3823,4.3894,4.3905,4.3952,4.4002,4.4005,4.3946,4.3938,4.4041,4.4054,4.4067,4.4243,4.4092,4.41,4.4105,4.4484,4.449,4.4496,0,0,0,0,0,0,4.3753,4.3775,4.3953,4.3868,4.389,4.3904,4.3956,4.3956,4.3988,4.4011,4.4012,4.3976,4.4038,4.4055,4.4171,4.4246,4.4104,4.4112,4.4478,4.4486,4.4493,4.4596,0,0,0,0,0,0,4.3747,4.3774,4.3829,4.387,4.3894,4.4055,4.3961,4.3961,4.4002,4.3993,4.404,4.4043,4.4036,4.4158,4.4179,4.4255,4.4119,4.4471,4.4481,4.449,4.4586,4.4607,4.4624,0,0,0,0,0,4.3738,4.3855,4.3833,4.3855,4.3964,4.4059,4.4073,4.4063,4.4009,4.4065,4.408,4.4041,4.4234,4.4171,4.4194,4.4273,4.4466,4.4478,4.449,4.4578,4.4603,4.4624,0,0,0,0,0,0,4.3822,4.3859,4.3835,4.3969,4.4012,4.4047,4.4118,4.409,4.4149,4.4138,4.4123,4.4134,4.4255,4.4276,4.4205,4.4419,4.4342,4.4359,4.4401,4.4425,4.4443,4.4436,4.4126,0,0,0,0,0,4.3857,4.393,4.3959,4.4074,4.4096,4.4104,4.4145,4.4133,4.4177,4.4195,4.4218,4.4263,4.4333,4.438,4.4446,4.4589,4.4598,4.4655,4.4674,4.4689,4.4704,4.4782,4.4808,4.4535,4.4534,4.4534,0,0,4.3928,4.3957,4.4005,4.4092,4.4123,4.4201,4.4119,4.4205,4.4262,4.4208,4.4319,4.4338,4.4386,4.4517,4.4575,4.4537,4.4782,4.4704,4.4717,4.4723,4.4797,4.4823,4.4846,4.4543,4.4541,4.454,0,0,4.4097,4.4127,4.4226,4.426,4.4309,4.4313,4.4337,4.4378,4.4388,4.4499,4.446,4.4529,4.4651,4.4687,4.4722,4.4907,4.4873,4.4929,4.5028,4.5104,4.5125,4.5144,4.5211,4.5235,4.4943,4.4944,4.4944,0,4.418,4.4294,4.4281,4.4369,4.4409,4.4363,4.4464,4.4498,4.4566,4.4595,4.4552,4.4704,4.4734,4.4872,4.4918,4.4947,4.4974,4.4923,4.5123,4.5142,4.516,4.5223,4.5248,4.495,4.4949,4.4949,4.4948,0,4.4394,4.4474,4.4548,4.4616,4.4664,4.4758,4.4759,4.481,4.4795,4.4804,4.4918,4.4952,4.5025,4.5057,4.5042,4.5194,4.5169,4.5125,4.5047,4.5193,4.5252,4.5276,4.4959,4.4957,4.4955,4.4953,0,0,4.4618,4.4677,4.4705,4.4735,4.4787,4.4849,4.4942,4.5013,4.5057,4.5106,4.5184,4.5289,4.5249,4.5288,4.5278,4.5344,4.549,4.5292,4.5293,4.5328,4.5659,4.5692,4.572,4.5468,4.5473,4.5476,4.5655,0,4.479,4.4951,4.4942,4.5094,4.5168,4.5127,4.5208,4.5249,4.526,4.5326,4.5338,4.5413,4.5354,4.5378,4.5442,4.5458,4.5556,4.5445,4.5541,4.5544,4.553,4.5751,4.5786,4.5953,4.5678,4.5682,4.5685,0,4.5013,4.507,4.5229,4.527,4.5301,4.5374,4.5438,4.5501,4.5547,4.5551,4.5596,4.5575,4.5669,4.559,4.572,4.5645,4.5684,4.5698,4.5704,4.5713,4.5623,4.5766,4.6006,4.6031,4.5721,4.5718,4.5716,0,4.5161,4.5278,4.5388,4.5415,4.5466,4.5518,4.5542,4.5583,4.5627,4.5684,4.5712,4.578,4.5817,4.587,4.5868,4.581,4.6001,4.5921,4.6007,4.6007,4.6049,4.6046,4.6299,4.6074,4.6074,4.6073,4.6073,0,4.5354,4.5453,4.5455,4.5523,4.5633,4.5622,4.5732,4.575,4.5787,4.5859,4.5827,4.5895,4.5888,4.5957,4.5956,4.6065,4.6082,4.6088,4.6086,4.6091,4.609,4.6116,4.6104,4.608,4.6078,4.6077,4.6076,0,4.5539,4.5544,4.5661,4.57,4.5712,4.5792,4.5825,4.589,4.5899,4.5989,4.601,4.6025,4.6104,4.6107,4.6199,4.6198,4.6331,4.6316,4.6315,4.6312,4.6398,4.639,4.6676,4.6714,4.6465,4.6467,4.6469,0,4.5662,4.5737,4.5784,4.5829,4.5856,4.5929,4.5974,4.5967,4.6014,4.6073,4.6131,4.6207,4.6268,4.6396,4.6415,4.6485,4.6472,4.6568,4.6483,4.6485,4.6474,4.647,4.6477,4.6584,4.6587,4.6589,4.6591,0,4.588,4.5879,4.5943,4.601,4.6064,4.6116,4.6165,4.6204,4.6202,4.6258,4.6338,4.6385,4.6479,4.6555,4.6623,4.6648,4.6621,4.6618,4.6642,4.6647,4.6643,4.6647,4.636,4.6611,4.6609,4.6608,4.6607,4.6606,4.6037,4.6102,4.6145,4.6219,4.6255,4.6301,4.6364,4.6381,4.6448,4.6523,4.6515,4.6605,4.665,4.6739,4.677,4.684,4.6807,4.6842,4.685,4.6859,4.6868,4.6632,4.6852,4.6852,4.6851,4.6851,4.685,0,4.6253,4.6279,4.6347,4.6416,4.6475,4.6443,4.6495,4.6546,4.6626,4.667,4.673,4.6823,4.6898,4.6923,4.6995,4.7047,4.7036,4.7066,4.7062,4.7069,4.6893,4.6865,4.7074,4.7074,4.7074,4.7074,4.7074,4.7074,4.6373,4.6482,4.6486,4.6613,4.6638,4.6725,4.6758,4.6801,4.6836,4.6941,4.7003,4.7019,4.7056,4.7131,4.7198,4.7203,4.7231,4.7267,4.7268,4.7103,4.7081,4.7059,4.7033,4.7273,4.7274,4.7437,4.7439,4.744]},{"header":{"parameterUnit":"m.s-1","parameterCategory":1,"la1":30.2991,"la2":30.254,"lo1":-89.0895,"lo2":-89.0444,"dy":0.0017,"dx":0.0017,"nx":28,"ny":28,"refTime":"2026-02-04T09:00:00:Z","depth":0,"parameterNumber":3,"parameterNumberName":"V-component_of_WINDS"},"data":[0,0,0,0,0,0,0,0,0,0,0,0,0,0,0,0,0,0,0,0,0,0,0,0,0,0,0,0,0,0,0,0,0,0,0,0,0,0,0,0,0,0,0,0,0,0,0,0,0,0,0,0,0,0,0,0,0,0,-3.8431,-3.8433,0,-3.8611,-3.8613,-3.8615,-3.8618,-3.8616,-3.8614,-3.8611,-3.8796,-3.8803,-3.881,0,0,0,0,0,0,0,0,0,0,0,0,0,-3.8091,-3.8097,-3.8431,-3.8433,-3.8436,-3.8611,-3.8613,-3.8616,-3.8618,-3.8616,-3.8613,-3.861,-3.8794,-3.8802,-3.8811,0,0,0,0,0,0,0,0,0,0,0,0,0,-3.8251,-3.8099,-3.8431,-3.8458,-3.8462,-3.861,-3.8613,-3.8616,-3.8619,-3.8616,-3.8612,-3.8609,-3.8791,-3.8802,-3.8812,-3.8945,0,0,-3.8844,-3.8849,0,0,0,0,0,0,0,0,-3.8242,-3.8264,-3.8452,-3.8456,-3.8461,-3.8589,-3.8561,-3.8727,-3.862,-3.856,-3.8611,-3.8607,-3.873,-3.8745,-3.8787,-3.8954,-3.8962,-3.8845,-3.8852,-3.8856,-3.8859,0,0,0,0,0,0,0,-3.8231,-3.8256,-3.8502,-3.8454,-3.846,-3.8462,-3.8481,-3.8593,-3.8662,-3.8565,-3.8565,-3.8586,-3.8732,-3.8777,-3.8791,-3.8964,-3.8845,-3.8854,-3.8861,-3.8865,-3.9251,-3.9254,0,0,0,0,0,0,-3.8214,-3.8247,-3.8497,-3.8508,-3.8341,-3.8471,-3.8492,-3.8551,-3.866,-3.8674,-3.8589,-3.8586,-3.876,-3.8779,-3.8798,-3.8961,-3.8856,-3.8866,-3.8872,-3.9247,-3.9252,-3.9256,0,0,0,0,0,0,-3.8207,-3.8237,-3.8489,-3.8378,-3.841,-3.848,-3.8547,-3.8557,-3.8601,-3.8679,-3.8691,-3.8622,-3.8758,-3.8783,-3.8909,-3.8968,-3.8871,-3.888,-3.9242,-3.9248,-3.9254,-3.9289,0,0,0,0,0,0,-3.8197,-3.8234,-3.8285,-3.8379,-3.8416,-3.8597,-3.855,-3.8563,-3.8619,-3.8617,-3.8713,-3.8726,-3.8757,-3.8893,-3.8919,-3.898,-3.8889,-3.9237,-3.9245,-3.9252,-3.9283,-3.9295,-3.9306,0,0,0,0,0,-3.8185,-3.8288,-3.8288,-3.8318,-3.8481,-3.86,-3.8622,-3.8656,-3.8624,-3.8676,-3.8726,-3.8723,-3.8957,-3.8906,-3.8935,-3.9001,-3.9234,-3.9243,-3.9251,-3.9278,-3.9293,-3.9306,0,0,0,0,0,0,-3.8199,-3.8301,-3.8301,-3.8437,-3.851,-3.8601,-3.8667,-3.8671,-3.8755,-3.8749,-3.8788,-3.881,-3.8935,-3.898,-3.8922,-3.9136,-3.9091,-3.9107,-3.9101,-3.9117,-3.9128,-3.9115,-3.8897,0,0,0,0,0,-3.8218,-3.8306,-3.839,-3.8502,-3.8539,-3.8597,-3.865,-3.867,-3.8747,-3.8778,-3.8838,-3.8913,-3.9004,-3.9063,-3.915,-3.9289,-3.9311,-3.9349,-3.9361,-3.937,-3.9382,-3.946,-3.9478,-3.9285,-3.9285,-3.9284,0,0,-3.8258,-3.8324,-3.8378,-3.8507,-3.8565,-3.8656,-3.8623,-3.872,-3.8788,-3.8793,-3.8916,-3.8962,-3.9049,-3.9182,-3.9244,-3.9224,-3.9441,-3.9381,-3.9388,-3.9396,-3.9471,-3.9489,-3.9506,-3.9291,-3.929,-3.9289,0,0,-3.8378,-3.8437,-3.8536,-3.8596,-3.8686,-3.8724,-3.8748,-3.8838,-3.8869,-3.8993,-3.8998,-3.908,-3.9235,-3.9297,-3.9349,-3.9492,-3.9492,-3.952,-3.958,-3.9656,-3.9671,-3.9685,-3.9736,-3.9754,-3.9532,-3.9532,-3.9532,0,-3.8416,-3.8553,-3.8587,-3.8686,-3.8742,-3.8751,-3.8853,-3.8909,-3.9023,-3.9062,-3.9038,-3.9233,-3.9292,-3.944,-3.9475,-3.9517,-3.9546,-3.9509,-3.9666,-3.968,-3.9693,-3.9743,-3.9763,-3.9535,-3.9535,-3.9534,-3.9534,0,-3.8597,-3.8692,-3.8762,-3.8871,-3.8936,-3.9035,-3.9085,-3.9146,-3.9161,-3.9202,-3.9328,-3.9399,-3.9501,-3.9538,-3.9553,-3.9689,-3.9674,-3.9657,-3.9614,-3.9714,-3.9762,-3.9781,-3.9539,-3.9538,-3.9537,-3.9536,0,0,-3.873,-3.8857,-3.8883,-3.8933,-3.9032,-3.9107,-3.9207,-3.9307,-3.9359,-3.9437,-3.9523,-3.9654,-3.964,-3.9698,-3.9721,-3.9787,-3.9897,-3.9763,-3.9765,-3.9786,-4.0052,-4.0064,-4.0085,-3.9897,-3.9901,-3.9904,-4.0044,0,-3.8861,-3.9039,-3.9072,-3.9227,-3.9316,-3.9325,-3.9413,-3.9483,-3.9524,-3.9606,-3.9651,-3.9744,-3.9717,-3.9753,-3.9819,-3.9869,-3.9951,-3.986,-3.9978,-3.9982,-3.9956,-4.011,-4.0123,-4.0252,-4.0063,-4.0066,-4.0069,0,-3.9037,-3.912,-3.9283,-3.9371,-3.941,-3.9488,-3.9583,-3.966,-3.9741,-3.9766,-3.9832,-3.9847,-3.9952,-3.9903,-4.0049,-3.9986,-4.0036,-4.0069,-4.0074,-4.0087,-4.0031,-4.0127,-4.0294,-4.0313,-4.0098,-4.0096,-4.0094,0,-3.9119,-3.9271,-3.9389,-3.9431,-3.9537,-3.9591,-3.9638,-3.9715,-3.9774,-3.9857,-3.9895,-3.9989,-4.0041,-4.0114,-4.0154,-4.0115,-4.0297,-4.0252,-4.0322,-4.0321,-4.036,-4.0357,-4.0537,-4.0391,-4.0391,-4.0391,-4.039,0,-3.9262,-3.9361,-3.9427,-3.9499,-3.9612,-3.965,-3.976,-3.9806,-3.9875,-3.9957,-3.9971,-4.0048,-4.0096,-4.018,-4.0212,-4.0328,-4.0351,-4.0375,-4.0383,-4.0374,-4.0371,-4.0408,-4.0401,-4.0396,-4.0395,-4.0394,-4.0393,0,-3.9372,-3.942,-3.9549,-3.9638,-3.9663,-3.9742,-3.9819,-3.989,-3.9931,-4.0035,-4.0061,-4.0126,-4.0225,-4.0272,-4.0396,-4.0418,-4.0549,-4.0551,-4.0522,-4.0525,-4.0593,-4.0586,-4.0803,-4.0834,-4.0667,-4.0669,-4.067,0,-3.946,-3.9537,-3.9635,-3.9691,-3.9739,-3.9828,-3.9888,-3.9929,-3.999,-4.0088,-4.0148,-4.0248,-4.033,-4.0489,-4.0547,-4.0642,-4.0646,-4.0715,-4.066,-4.0649,-4.0648,-4.0643,-4.0651,-4.0725,-4.0727,-4.0728,-4.0729,0,-3.9612,-3.9631,-3.9716,-3.981,-3.9881,-3.9957,-4.0031,-4.0076,-4.0129,-4.0198,-4.0299,-4.0363,-4.0489,-4.0589,-4.0688,-4.0736,-4.0742,-4.0746,-4.0768,-4.076,-4.0741,-4.0753,-4.055,-4.0741,-4.074,-4.0739,-4.0738,-4.0738,-3.9714,-3.9783,-3.9863,-3.9958,-4.0018,-4.0087,-4.0159,-4.0208,-4.0294,-4.04,-4.0419,-4.0527,-4.0607,-4.074,-4.0792,-4.0878,-4.0862,-4.0893,-4.0901,-4.0908,-4.0912,-4.0726,-4.0896,-4.0896,-4.0895,-4.0895,-4.0895,0,-3.9867,-3.9919,-4.0005,-4.0109,-4.0184,-4.0182,-4.0265,-4.0327,-4.0423,-4.0496,-4.0577,-4.0694,-4.0791,-4.0857,-4.0955,-4.1011,-4.1017,-4.1036,-4.1032,-4.1044,-4.092,-4.0892,-4.103,-4.103,-4.103,-4.103,-4.103,-4.103,-3.9955,-4.0072,-4.0102,-4.0249,-4.0301,-4.0407,-4.0454,-4.0519,-4.0578,-4.0708,-4.0788,-4.083,-4.0901,-4.1005,-4.1094,-4.1111,-4.1147,-4.1166,-4.1183,-4.1066,-4.1052,-4.1039,-4.1013,-4.1174,-4.1174,-4.13,-4.1301,-4.1302]}]]